Flag for U.S.A. Weather past 2 weeks in Butte, Montana, U.S.A.

Now
56 °F

Broken clouds.


Feels Like: 55 °F
Forecast: 39 / 55 °F
Wind: 5 mph from South

Location: Mooney Airport

Current Time: Aug 30, 2014 at 8:28:45 PM

Latest Report: Aug 30, 2014 at 7:53 PM


Visibility: 10 mi

Pressure: 29.82 "Hg

Humidity: 81%

Dew point: 50 °F

Location of ButteLocation

Historic Weather in Butte — Graph

°F

Butte temperature yesterday

Maximum temperature yesterday: 79 °F (at 4:53 PM)
Minimum temperature yesterday: 43 °F (at 6:53 AM)
Average temperature yesterday: 62 °F

Past Weeks' High & Low Weather Summary

 TemperatureHumidityPressure
High81 °F (Aug 18, 3:53 PM)96% (Aug 16, 4:53 AM)30.20 "Hg (Aug 16, 4:53 AM)
Low42 °F (Aug 26, 5:53 AM)19% (Aug 29, 2:53 PM)29.71 "Hg (Aug 19, 3:53 PM)
Average57 °F65%30.00 "Hg
* Reported Aug 15 6:53 PM — Aug 30 6:53 PM, Butte, Weather by CustomWeather, © 2014

Note: Actual official high and low records may vary slightly from our data, if they occured in-between our weather recording intervals... More about our weather records

Advertising

Butte weather history for previous 24 hours

 ConditionsComfort  
Time TempWeatherWind HumidityBarometerVisibility
6:53 PM
Aug 30
58 °FOvercast.No wind67%29.81 "Hg10 mi
5:53 PM57 °FLight rain. Partly sunny.7 mph74%29.80 "Hg10 mi
5:01 PM57 °FOvercast.7 mph72%29.91 "Hg10 mi
3:53 PM56 °FBroken clouds.9 mph72%29.80 "Hg10 mi
2:53 PM54 °FPartly sunny.5 mph77%29.82 "Hg10 mi
1:53 PM62 °FBroken clouds.No wind54%29.78 "Hg10 mi
12:53 PM61 °FScattered clouds.6 mph60%29.80 "Hg10 mi
11:53 AM60 °FMore clouds than sun.3 mph56%29.81 "Hg10 mi
10:53 AM59 °FSunny.No wind54%29.80 "Hg10 mi
9:53 AM56 °FSunny.6 mph72%29.81 "Hg10 mi
8:53 AM53 °FPassing clouds.No wind86%29.83 "Hg10 mi
7:53 AM51 °FSunny.9 mph86%29.82 "Hg10 mi
6:53 AM50 °FPassing clouds.5 mph89%29.83 "Hg10 mi
5:53 AM52 °FPassing clouds.3 mph80%29.83 "Hg10 mi
4:53 AM54 °FMostly cloudy.No wind77%29.82 "Hg10 mi
3:53 AM53 °FLight rain. Mostly cloudy.7 mph80%29.83 "Hg10 mi
2:53 AM50 °FClear.5 mph89%29.78 "Hg10 mi
1:53 AM51 °FClear.6 mph86%29.78 "Hg10 mi
12:53 AM54 °FClear.No wind77%29.79 "Hg10 mi
11:53 PM
Aug 29
56 °FPassing clouds.10 mph72%29.80 "Hg10 mi
11:02 PM62 °FLight rain. Partly cloudy.12 mph50%29.97 "Hg10 mi
10:53 PM63 °FThunderstorms. Overcast.15 mph48%29.82 "Hg10 mi
9:53 PM61 °FPassing clouds.No wind52%29.83 "Hg10 mi
8:53 PM63 °FSunny.9 mph48%29.83 "Hg10 mi
Weather by CustomWeather, © 2014

See weather overviewHow to use our weather pages